Showing default

SECOR 4 (EGRS 4), 1315

Orbit data source: Space-Track

SECOR 4 (EGRS 4), 1315 is an American payload satellite in LEO that was launched on Sat, 03 Apr 1965 UTC via an ATLAS SLV-3 AGENA D launch vehicle from the Air Force Western Test Range (AFWTR). Payload-class satellites include a variety of spacecraft equipped with specific instruments for various scientific and technological missions. These include communications satellites like Starlink; space stations such as the ISS; scientific satellites like the Hubble; Earth observation satellites from companies like Planet Labs, Umbra, and HawkEye 360; GPS; miniature CubeSats for education and research; and military/defense satellites.

Loading next visibility...
Identifier
1315, 1965-027B
Orbit
LEO
Country
Flag of USUS
Related business
Manufacturer
ITT
Mission
Spacecraft
Bus & Motor
SECOR, Unknown motor
Mass
18 kg wet, 18 kg dry
Launch date (UTC)
1965-04-03 (61 years ago)
Launch vehicle
ATLAS SLV-3 AGENA D
Launch site
Air Force Western Test Range (AFWTR)
Object type
Payload
Rocket body
Debris
Shape & HBR
Unknown
Radar Cross Section
Medium (>0.1 m² and <1 m²)

Expand to show TLE details & history
Last TLE update: 8 hours ago

TLE from 8 hours ago
0 SECOR 4 (EGRS 4)
1 01315U 65027B   26104.18617447 -.00000047  00000-0 -20146-3 0  9990
2 01315  90.2557  14.1138 0031507  10.7405 145.1151 12.92666428878659
Epoch: 2026-04-14T04:28Z
TLE epoch observation values (Epoch: 2026-04-14T04:28:05.474Z)
Latitude
23.95836°
Longitude
-75.16199°
Altitude
1,313.691 km
Speed
7.193 km/s
True Right ascension
12h 56m 54s
True Declination
23° 50' 25"
Sunlit
Object was in full shadow at epoch
Visualization orbit readout
Latitude
Unknown
Longitude
Unknown
Altitude
Unknown
Speed
Unknown
Apparent Right ascension
Unknown
Apparent Declination
Unknown
Sunlit
N/A
Visualization observer readout
Local Sidereal Time
18:47:36
Azimuth
Unknown
Elevation
Unknown
Doppler factor
Unknown
Orbital elements
Apogee altitude
1,312.248 km
Perigee altitude
1,263.94 km
Semi-major axis
7,666.231 km
Eccentricity
0.00315
Inclination
90.2557°
RAAN
14.1138°
Arg. of periapsis
10.7405°
True anomaly
145.32093°
Mean anomaly
145.1151°
Eccentric anomaly
145.21808°
Mean motion
3.23348 °/min
Orbital period
111.34 mins
BSTAR
-0.00020146
Loading maneuver chart data...
Computing Atmospheric mass density...
Loading historical data...
Loading historical data...
Loading historical data...
Loading historical data...
Loading historical data...
Loading historical data...
Loading historical data...

Documentation

Showing up to 5 results
|